Regional Weather Roundup
Issued by NWS

Home | Current Version | Previous Version | Graphics & Text | Print | Product List | Glossary On
Versions: 1 2 3 4 5 6 7 8 9 10 11 12 13 14 15 16 17 18 19 20 21 22 23 24 25 26 27 28 29 30 31 32 33 34 35 36 37 38 39 40 41 42 43 44 45 46 47 48 49 50
858
ASUS43 KIND 270209
RWRIN

WEATHER ROUNDUP FOR INDIANA
NATIONAL WEATHER SERVICE INDIANAPOLIS IN
1000 PM EDT THU MAY 26 2016

NOTE: "FAIR" INDICATES FEW OR NO CLOUDS BELOW 12,000 FEET WITH NO
SIGNIFICANT WEATHER AND/OR OBSTRUCTIONS TO VISIBILITY.

* - STATION DOES NOT REPORT WEATHER SUCH AS PRECIPITATION OR FOG.

+ - STATION NOT QUALITY CONTROLLED BY THE NATIONAL WEATHER SERVICE.
    USE DATA WITH CAUTION...ESPECIALLY DEWPOINT AND RELATIVE
    HUMIDITY OBSERVATIONS.

INZ001>003-010>013-019-020-270300-
NORTHWEST INDIANA

CITY           SKY/WX    TMP DP  RH WIND       PRES   REMARKS
GARY /AIRPORT/ MOCLDY    79  72  78 VRB7      29.90R
KNOX *+        CLOUDY    72  57  60 S6        29.93R
LA PORTE +     CLOUDY    76  64  67 S3        29.93R
MICHIGAN CITY+ PTCLDY    73  63  68 S6        29.92R
MONTICELLO +   CLOUDY    72  60  66 S7        29.95R
RENSSELAER +   CLEAR     72  66  83 S12       29.94R
VALPARAISO     PTCLDY    75  66  73 S6        29.93R

$$

LMZ046-743>745-270300-
SOUTHERN LAKE MICHIGAN

STATION/POSITION TIME  TEMP    WIND        PRES    WAVE
                       AIR SEA DIR/SP/G            HT
                 (UTC) (F)     (DEG/KT/KT) (MB)    (FT)
BURNS HARBOR     0100   80     180/  5/  8 1012.2R
MICHIGAN CITY    0100   73      50/  2/  3   N/A
5NW MICH CITY    0200   69 62  160/  4/  6   N/A     1

$$

INZ004-005-014>016-021>024-270300-
NORTH CENTRAL INDIANA

CITY           SKY/WX    TMP DP  RH WIND       PRES   REMARKS
GOSHEN         CLOUDY    72  58  61 S6        29.93R
LOGANSPORT +   CLOUDY    70  61  73 S8        29.96R
PERU/GRISSOM   CLOUDY    71  64  76 SW13      29.95R
ROCHESTER +    CLOUDY    75  64  69 SW5       29.94R
SOUTH BEND     CLEAR     74  62  66 SW7       29.93R
WARSAW +       CLOUDY    70  59  68 CALM      29.94R

$$

INZ006>009-017-018-025>027-270300-
NORTHEAST INDIANA

CITY           SKY/WX    TMP DP  RH WIND       PRES   REMARKS
ANGOLA *+        N/A     72  64  78 CALM      29.94
AUBURN +       PTCLDY    73  61  64 SW3       29.95R
FORT WAYNE     MOCLDY    73  61  65 SW9       29.96R
HUNTINGTON +   PTCLDY    73  62  68 SW7       29.95R

$$

INZ028-029-035-036-043>045-051>053-270300-
WEST CENTRAL INDIANA

CITY           SKY/WX    TMP DP  RH WIND       PRES   REMARKS
CRAWFORDSVL +  CLEAR     66  64  91 S7        29.97R
GREENCASTLE +  CLOUDY    68  64  88 S6        29.99R
LAFAYETTE      CLOUDY    70  64  81 S6        29.95R
TERRE HAUTE    CLEAR     69  63  81 S8        29.97R

$$

INZ030>032-037>040-046>048-054>057-064-065-270300-
CENTRAL INDIANA

CITY           SKY/WX    TMP DP  RH WIND       PRES   REMARKS
CP ATTERBURY + CLOUDY    68  63  83 S7        29.98F
COLUMBUS       MOCLDY    68  66  94 S10       29.99R
FISHERS *+     CLOUDY    68  64  88 S6        29.99R
FRANKFORT +      N/A     70  56  61 CALM      29.99R
GREENWOOD *+   CLOUDY    68  63  83 S6        29.99R
INDIANAPOLIS   MOCLDY    69  63  81 S8        29.96R
-EAGLE CREEK   PTCLDY    71  63  75 S5        29.97R
KOKOMO *+      PTCLDY    72  61  68 SW12G18   29.96R
MARION +       PTCLDY    71  62  71 S7        29.98R
SHELBYVILLE    CLOUDY    70  64  81 S7        29.97S
ZIONSVILLE +   PTCLDY    68  63  85 S8        29.98R

$$

INZ033-034-041-042-049-050-058-059-270300-
EAST CENTRAL INDIANA

CITY           SKY/WX    TMP DP  RH WIND       PRES   REMARKS
MUNCIE         MOCLDY    73  62  68 SW8       29.98R

$$

INZ060-061-067>069-081>083-085>088-270300-
SOUTHWEST INDIANA

CITY           SKY/WX    TMP DP  RH WIND       PRES   REMARKS
EVANSVILLE     CLOUDY    68  62  81 E3        29.97S
HUNTINGBURG *+ CLOUDY    68  63  83 SE7       29.98F
WASHINGTON +   MOCLDY    69  66  91 S7        29.98R

$$

INZ062-063-066-070>080-084-089>092-270300-
SOUTH CENTRAL AND SOUTHEAST INDIANA

CITY           SKY/WX    TMP DP  RH WIND       PRES   REMARKS
BEDFORD +      CLOUDY    68  68 100 S6        29.99R
BLOOMINGTON    MOCLDY    69  60  73 S8        29.98R
MADISON *+     CLOUDY    64  63  94 CALM      30.03R
NORTH VERNON + CLOUDY   N/A N/A N/A CALM      30.01R
SEYMOUR +      CLOUDY    70  63  78 CALM      29.99R

$$





USA.gov is the U.S. government's official web portal to all federal, state and local government web resources and services.